H-2A R/B

Last updated on Thu Oct 30 2025 00:02:16 GMT+0000 (Coordinated Universal Time)

1 43682U 18084L 25302.46745147 .00024584 00000+0 71060-3 0 9993 2 43682 98.8821 127.4488 0029409 116.3015 244.1250 15.35212981385603
UTC large
Height (km)
Speed (km/s)
/
Latitude / Longitude
Inclination (degrees)
Orbital Period (minutes)
Azimuth
Elevation
Range (km)
Doppler Factor

Next 0 passes for location: London (51.5072 / 0.1276)

Sorry there are no passes over London.